This is the latest recevied weather packets stored in our database for station/object WX4SGA. If no packets are shown the sender has not sent any weather packets the latest 10 day(s).
| Time | Temp. | Humidity | Pressure | Rain* | Wind** | Luminosity | Snow |
|---|---|---|---|---|---|---|---|
| 1777599368 | 24.44° C | 67% | 1012.9 hPa | 0 mm | - | 0 W/m² | - |
| 1777599065 | 24.44° C | 67% | 1012.9 hPa | 0 mm | - | 0 W/m² | - |
| 1777598762 | 24.44° C | 67% | 1012.9 hPa | 0 mm | - | 0 W/m² | - |
| 1777598457 | 24.44° C | 67% | 1012.5 hPa | 0 mm | - | 0 W/m² | - |
| 1777598156 | 24.44° C | 67% | 1012.5 hPa | 0 mm | - | 0 W/m² | - |
| 1777597850 | 24.44° C | 66% | 1012.5 hPa | 0 mm | - | 0 W/m² | - |
| 1777597545 | 25° C | 66% | 1012.5 hPa | 0 mm | - | 0 W/m² | - |
| 1777597241 | 25° C | 66% | 1012.2 hPa | 0 mm | - | 0 W/m² | - |
| 1777596936 | 25° C | 65% | 1012.2 hPa | 0 mm | - | 0 W/m² | - |
| 1777596634 | 25° C | 65% | 1012.2 hPa | 0 mm | - | 0 W/m² | - |
| 1777596329 | 25° C | 64% | 1011.9 hPa | 0 mm | - | 0 W/m² | - |
| 1777596027 | 25.56° C | 64% | 1011.9 hPa | 0 mm | - | 0 W/m² | - |
| 1777595722 | 25.56° C | 63% | 1011.9 hPa | 0 mm | - | 0 W/m² | - |
| 1777595418 | 25.56° C | 63% | 1011.5 hPa | 0 mm | - | 0 W/m² | - |
| 1777595114 | 25.56° C | 62% | 1011.5 hPa | 0 mm | - | 0 W/m² | - |
| 1777594810 | 25.56° C | 61% | 1011.2 hPa | 0 mm | - | 1 W/m² | - |
| 1777594507 | 25.56° C | 61% | 1011.2 hPa | 0 mm | - | 1 W/m² | - |
| 1777594203 | 26.11° C | 60% | 1011.2 hPa | 0 mm | - | 3 W/m² | - |
| 1777593898 | 26.11° C | 60% | 1010.8 hPa | 0 mm | - | 4 W/m² | - |
| 1777593595 | 26.11° C | 59% | 1010.8 hPa | 0 mm | - | 6 W/m² | - |
| 1777593290 | 26.67° C | 58% | 1011.2 hPa | 0 mm | - | 9 W/m² | - |
| 1777592985 | 26.67° C | 58% | 1010.8 hPa | 0 mm | - | 11 W/m² | - |
| 1777592680 | 26.67° C | 57% | 1010.8 hPa | 0 mm | - | 15 W/m² | - |
| 1777592376 | 26.67° C | 56% | 1010.8 hPa | 0 mm | - | 21 W/m² | - |
| 1777592071 | 27.22° C | 56% | 1010.8 hPa | 0 mm | - | 25 W/m² | - |
* Rain latest hour (hover to see other rain measurements)
** Current wind speed in m/s (hover to see current wind gust speed)